Location: Gokavaram
(16.9752°N, 81.0696°E)
Time: 11:42:40
(UTC+00:00)

NOSS 2-1 (C) - Pass Details

Date: 15 May 2026
Orbit: 374 x 1678 km, 63.3° (Epoch: 6 June)

Event Time Altitude Azimuth Distance (km) Brightness Sun altitude
Exits shadow 23:12:31 - 199° (SSW) 3,516 7.0 -12.3°
Reaches altitude 10° 23:14:45 10° 198° (SSW) 2,650 6.4 -11.8°
Maximum altitude 23:20:42 70° 116° (ESE) 763 4.2 -10.5°
Drops below altitude 10° 23:24:54 10° 32° (NNE) 1,886 7.0 -9.6°
Sets 23:26:47 0° 30° (NNE) 2,648 7.8 -9.1°
